TIME,DELAY(SENSOR),PRES,T(CTD),SAL,OXYGEN,RAWTEMP,T(OPTODE),TCPHASE,FLUOR,BETA(BETA700),BETA(BETA412),BETA(BETA440),CDOM,C(CSC),ED(ED412.40),ED(ED444.00),ED(ED489.70),ED(ED554.30),LU(LU411.80),LU(LU443.40),LU(LU489.60),LU(LU554.10),COMP,TILTX,TILTX(TILTY),CHECK
1340486892,5812,497.1499938964844000,6.5521001815795900,34.1822013854980500,65.9756774902343800,601.2108764648438000,6.5451431274414060,50.6457710266113300,53,105,88,81,80,15364,2147750646,2147421220,2148005577,2147874048,2147630336,2147081106,2148245888,2147202331,634,4,13,46847
1340487021,5810,486.7399902343750000,6.6982002258300780,34.1685981750488300,70.1373977661132800,597.1475830078125000,6.6763710975646970,50.0640792846679700,52,106,92,81,81,15365,2147750592,2147419584,2148005293,2147874541,2147631817,2147084516,2148245595,2147204452,3236,4,13,33471
1340487160,5804,475.4100036621094000,6.7916998863220215,34.1575012207031250,74.8354568481445300,593.5908203125000000,6.7911128997802730,49.4350585937500000,52,106,88,81,80,15363,2147749952,2147421092,2148004882,2147871542,2147627931,2147075008,2148244745,2147203940,2816,4,13,27916
1340487299,5809,464.2099914550781000,6.9681000709533690,34.1521987915039060,80.7754974365234400,588.5418701171875000,6.9537830352783200,48.6480789184570300,51,107,88,80,79,15364,2147753993,2147420297,2148001472,2147871305,2147626285,2147080274,2148241408,2147205037,1964,4,13,56748
1340487441,5807,453.2300109863281000,7.2171998023986820,34.1271018981933600,94.3593063354492200,580.6306152343750000,7.2082118988037110,46.9947090148925800,50,105,91,80,79,15364,2147747483,2147423195,2147999652,2147872182,2147626221,2147086720,2148236754,2147205888,926,4,13,45483
1340487580,5809,443.1199951171875000,7.4486999511718750,34.1257019042968750,102.2469024658203100,573.6561279296875000,7.4320387840271000,46.0444908142089840,51,106,87,82,79,15364,2147745188,2147421366,2148001371,2147871606,2147628096,2147085056,2148234870,2147203081,249,5,13,48868
1340487729,5806,430.5499877929687500,7.5482997894287110,34.1175003051757800,111.4693984985351600,570.2086791992188000,7.5425148010253910,45.0485191345214840,51,106,87,80,79,15363,2147746404,2147419410,2148003190,2147873563,2147629138,2147086710,2148237586,2147201042,3149,4,13,6461
1340487832,5809,420.2600097656250000,7.7891998291015625,34.1113014221191400,120.3349990844726600,563.1672973632812000,7.7678427696228030,44.0711288452148440,50,107,93,80,78,15360,2147747008,2147420589,2148003072,2147872768,2147626148,2147090157,2148234825,2147204900,2445,4,13,50905
1340487947,5807,409.2099914550781000,7.9356999397277830,34.1099014282226560,127.8508987426757800,558.4478149414062000,7.9186291694641110,43.2924613952636700,50,106,89,80,77,15362,2147747739,2147422052,2148003821,2147873344,2147625965,2147092324,2148232749,2147200758,1861,4,13,65226
1340488065,5810,397.6700134277344000,8.1534996032714840,34.1073989868164060,134.8871002197265600,551.1848754882812000,8.1503114700317380,42.5366210937500000,50,106,90,81,76,15355,2147747648,2147425572,2148002898,2147870939,2147622674,2147092141,2148236873,2147207533,1472,3,13,23080
1340488180,5811,386.6600036621094000,8.3345003128051760,34.1073989868164060,142.8316040039062500,545.9058227539062000,8.3184356689453120,41.7620315551757800,50,106,89,81,76,15360,2147745042,2147420617,2148003318,2147871616,2147622976,2147091364,2148229321,2147200310,1507,4,13,45025
1340488295,5811,375.8500061035156000,8.6590003967285160,34.1067008972168000,151.5395050048828000,535.8582153320312000,8.6378021240234380,40.8703002929687500,50,108,87,81,76,15358,2147740882,2147421732,2148004160,2147872100,2147620196,2147092946,2148231296,2147203245,1172,4,14,36020
1340488413,5809,365.3900146484375000,8.7793998718261720,34.1099014282226560,157.8722991943359400,531.8178100585938000,8.7659988403320310,40.2996902465820300,50,106,91,80,76,15363,2147741888,2147419510,2148004845,2147870436,2147621494,2147096384,2148231350,2147203666,1421,4,14,42181
1340488540,5808,354.8800048828125000,9.1759996414184570,34.1138992309570300,167.0706024169922000,519.2675781250000000,9.1634063720703120,39.3838996887207000,50,107,90,82,74,15359,2147741741,2147422198,2148005476,2147872109,2147617737,2147095881,2148229138,2147203648,2077,4,13,35245
1340488681,5811,344.0499877929687500,9.5608997344970700,34.1268997192382800,175.3782958984375000,507.1612854003906000,9.5456428527832030,38.5748100280761700,49,108,89,81,75,15356,2147742683,2147419922,2148001728,2147871579,2147617865,2147098176,2148224704,2147206665,2212,4,13,30340
1340488832,5806,332.3599853515625000,10.0223999023437500,34.1459007263183600,174.9429931640625000,492.8211059570312500,9.9970598220825200,38.3609886169433600,50,110,90,83,72,15352,2147741494,2147424192,2148000987,2147871954,2147614253,2147105270,2148218285,2147204224,3392,4,13,51642
1340488992,5806,319.9500122070312500,10.4769001007080080,34.1575012207031250,181.9461059570312500,477.1979980468750000,10.4872798919677730,37.6108703613281250,50,110,91,82,72,15353,2147736402,2147420187,2148001161,2147874752,2147612187,2147106898,2148222756,2147205430,2765,3,13,40746
1340489119,5810,308.9100036621094000,11.0690002441406250,34.1780014038085940,190.2057037353515600,458.9101867675781000,11.0591497421264650,36.7574691772460940,49,111,89,81,71,15355,2147739008,2147420964,2148002349,2147869686,2147609398,2147112749,2148217572,2147205878,1267,3,13,28023
1340489246,5804,298.4200134277344000,11.4236001968383790,34.1930007934570300,194.6826934814453000,447.0900878906250000,11.4277000427246100,36.2769889831543000,49,107,89,81,71,15353,2147738377,2147421824,2148004388,2147872237,2147603904,2147117092,2148218203,2147205156,1217,3,14,23067
1340489388,5806,287.8999938964844000,11.8685998916625980,34.2134017944335940,197.3502960205078000,432.7232971191406000,11.8746204376220700,35.8765602111816400,49,109,86,81,70,15354,2147734491,2147426313,2148023113,2147871716,2147601947,2147123419,2148229504,2147203346,204,3,14,63021
1340489527,5803,276.7399902343750000,12.4083003997802730,34.2429008483886700,199.5628051757812500,414.4920043945312500,12.4401998519897460,35.4490890502929700,49,107,89,81,71,15349,2147731145,2147441078,2148073920,2147871186,2147601993,2147132050,2148251748,2147207606,188,4,13,43144
1340489675,5806,263.0199890136719000,13.6195001602172850,34.3344993591308600,212.0550994873047000,376.6971130371094000,13.6078500747680660,34.1241416931152340,48,107,90,82,68,15351,2147732297,2147455744,2148115401,2147871387,2147598756,2147145910,2148265728,2147213915,2970,4,14,37725
1340489778,5809,252.5500030517578000,14.3242998123168950,34.3979988098144500,211.0859985351562500,353.4731140136719000,14.3225698471069340,33.8270797729492200,48,110,86,80,68,15349,2147730249,2147468059,2148143881,2147870208,2147595949,2147155675,2148270381,2147214244,3180,4,13,61213
1340489905,5807,240.7599945068359400,15.2818002700805660,34.4875984191894500,209.8495941162109400,323.0007019042969000,15.2577896118164060,33.4437294006347660,49,107,91,81,68,15348,2147726601,2147445010,2148067830,2147870244,2147587291,2147150665,2148235401,2147210432,2885,3,14,22362
1340490047,5805,228.9299926757812500,15.7906999588012700,34.5530014038085940,211.9261932373047000,305.7770080566406000,15.7853698730468750,33.0742988586425800,49,107,89,81,68,15347,2147737920,2147545152,2148317906,2147871378,2147589860,2147212132,2148348525,2147221705,1445,4,14,23570
1340490174,5806,218.5800018310547000,16.8015003204345700,34.6650009155273440,211.6717987060547000,272.2980041503906000,16.8093109130859380,32.6065597534179700,50,111,84,80,67,15343,2147746358,2147609133,2148447259,2147873636,2147593435,2147253275,2148409453,2147228854,2372,3,14,421
1340490315,5806,207.3800048828125000,17.3125991821289060,34.7282981872558600,213.1856994628906200,256.2550048828125000,17.2994899749755860,32.2959098815918000,52,107,91,81,66,15341,2147763785,2147699017,2148616585,2147873856,2147595721,2147310866,2148487030,2147236288,3041,3,15,30528
1340490442,5809,197.6300048828125000,17.6082992553710940,34.7644996643066400,213.0193939208984400,245.9987030029297000,17.6127490997314450,32.1606597900390600,53,109,87,82,66,15336,2147800338,2147831762,2148874651,2147877668,2147609956,2147389970,2148614802,2147244160,546,3,15,25228
1340490497,5809,193.7100067138672000,17.8426990509033200,34.7909011840820300,212.6920013427734400,239.1123962402343800,17.8230590820312500,32.0825500488281250,54,110,88,81,65,15334,2147819556,2147898761,2148993234,2147874550,2147615954,2147429577,2148669412,2147247817,648,3,15,32405
1340490552,5805,190.1399993896484400,18.1131992340087900,34.8227005004882800,212.3103027343750000,230.1130065917968800,18.0978908538818360,31.9776306152343750,56,110,89,80,65,15333,2147839890,2147950665,2149070555,2147877001,2147621558,2147453933,2148705124,2147251611,345,3,14,11377
1340490627,5808,186.2100067138672000,18.3561992645263670,34.8534011840820300,212.0424957275390600,221.8943939208984400,18.3488693237304700,31.8784408569335940,63,111,92,82,67,15332,2147868443,2148023131,2149196955,2147875584,2147629220,2147496694,2148760594,2147256603,2926,3,15,44339
1340490706,5808,182.9799957275390600,18.6826000213623050,34.8871002197265600,211.0809020996093800,211.4642944335937500,18.6674003601074220,31.7873992919921880,65,113,91,81,66,15328,2147902445,2148100891,2149327872,2147876562,2147641892,2147536576,2148818048,2147261842,2204,2,15,31101
1340490821,5803,178.8300018310547000,19.1186008453369140,34.9378013610839840,211.2920074462890600,198.2525939941406200,19.0709590911865230,31.5943908691406250,70,113,86,80,65,15324,2147944429,2148192676,2149485092,2147878939,2147654756,2147586349,2148878555,2147267245,1725,2,16,2396
1340490932,5812,174.5399932861328000,19.3924007415771500,34.9651985168457000,211.2662963867187500,189.3580017089843800,19.3427295684814450,31.4741401672363280,74,114,89,81,65,15316,2148004470,2148328192,2149713627,2147879341,2147674441,2147652416,2148970660,2147272064,1724,2,15,55448
1340491011,5812,170.7899932861328000,19.6296997070312500,34.9929008483886700,211.0865936279297000,179.8462066650390600,19.6334495544433600,31.3550796508789060,79,119,92,83,66,15313,2148067547,2148463817,2149932342,2147879606,2147698980,2147718390,2149058496,2147280539,439,2,15,7078
1340491114,5809,166.7200012207031200,20.0977001190185550,35.0475997924804700,211.6242980957031200,165.4866943359375000,20.0725593566894530,31.1318607330322270,88,120,91,81,64,15306,2148170843,2148697837,2150303753,2147882733,2147737828,2147828397,2149213851,2147295460,2977,2,15,14207
1340491241,5805,162.7500000000000000,20.3567008972167970,35.0783004760742200,213.0045928955078000,155.2274932861328000,20.3864803314209000,30.9203605651855470,90,121,91,82,64,15295,2148089737,2148366162,2149623040,2147879296,2147700772,2147654848,2148896018,2147269056,2066,3,16,26752
1340491344,5809,159.0899963378906200,20.7500991821289060,35.1250991821289060,215.5787048339843800,143.5796051025390600,20.7431392669677730,30.6291294097900400,98,126,91,83,63,15284,2148513197,2149316324,2151241974,2147892352,2147857243,2148097088,2149566674,2147321078,2198,2,16,53045
1340491459,5809,154.9600067138672000,21.2439994812011720,35.1725997924804700,217.8771057128906200,127.6678009033203100,21.2308597564697270,30.2993392944335940,110,127,90,83,64,15271,2148808969,2149816329,2151966089,2147893686,2147966052,2148306358,2149827035,2147345856,1060,2,16,16570
1340491573,5807,150.3699951171875000,21.7338008880615230,35.2162017822265600,222.6060943603515600,111.4972991943359400,21.7271900177001950,29.8481101989746100,122,127,92,83,64,15249,2149121362,2150298450,2152587483,2147901056,2148092452,2148513216,2150047561,2147366747,2514,2,16,18480
1340491652,5810,146.2200012207031200,21.8502998352050780,35.2294998168945300,225.6840972900390600,108.2567977905273400,21.8267402648925780,29.6533298492431640,122,129,89,83,62,15242,2149593188,2151106038,2153735515,2147911515,2148272338,2148841124,2150453056,2147397202,2509,2,16,23455
1340491719,5806,142.4199981689453000,22.0049991607666000,35.2384986877441400,227.4665985107422000,103.0411987304687500,21.9870491027832030,29.4989395141601560,128,125,93,83,64,15232,2150023515,2151770377,2154573924,2147917430,2148437915,2149123437,2150773696,2147428086,2732,3,16,62665
1340491798,5810,138.5299987792968800,22.1896991729736330,35.2495994567871100,228.8834991455078000,97.3002471923828100,22.1636009216308600,29.3565998077392580,136,133,91,83,63,15229,2150774656,2152969920,2156147145,2147936064,2148719899,2149611538,2151346560,2147479963,3301,2,16,19901
1340491892,5807,134.4100036621093800,22.2052001953125000,35.2527008056640600,230.2093048095703000,96.1463470458984400,22.1991004943847660,29.2781391143798830,137,127,93,84,63,15214,2151807789,2154512969,2158000822,2147953874,2149097380,2150194889,2151990445,2147539520,151,2,15,51083
1340491971,5810,130.8500061035156200,22.2740001678466800,35.2510986328125000,230.4414978027343800,93.8579864501953100,22.2695102691650400,29.2377395629882800,144,122,91,84,62,15228,2152648969,2155568448,2158985225,2147971794,2149420379,2150620882,2152377124,2147580562,538,2,15,43781
1340492074,5811,127.0199966430664000,22.5820007324218750,35.2526016235351560,231.1909027099609400,84.8626327514648400,22.5464801788330080,29.0874595642089840,139,126,90,83,62,15225,2154339410,2157864448,2161475648,2148003474,2150063213,2151553435,2153322880,2147675437,1443,2,16,20030
1340492201,5808,122.7900009155273400,22.8211002349853500,35.2823982238769500,236.3834991455078000,76.2710723876953100,22.8113002777099600,28.7355709075927730,113,118,94,83,62,15235,2156647021,2160886454,2164532882,2148045275,2151068013,2152920210,2154601892,2147800859,1200,2,16,49439
1340492292,5809,118.7300033569336000,23.0648002624511720,35.2801017761230500,237.2624053955078000,69.8171997070312500,23.0104198455810550,28.6137599945068360,95,129,91,83,61,15247,2159197540,2164194788,2167884534,2148105828,2152234294,2154494290,2156097280,2147935104,1135,2,16,28011
1340492383,5816,114.7600021362304700,23.1858005523681640,35.2812995910644500,239.8484039306640600,65.2691116333007800,23.1508407592773440,28.4389991760253900,92,121,91,84,60,15244,2161714221,2167259282,2170750125,2148172416,2153637330,2156303972,2157668781,2148087204,1804,2,16,29096
1340492476,5809,110.7399978637695300,23.3052005767822270,35.2795982360839840,241.8737945556640600,60.6365509033203100,23.2939605712890620,28.2900199890136720,84,124,91,85,60,15244,2164596845,2170796681,2174150144,2148258880,2155296137,2158421211,2159505453,2148256603,2244,2,16,29220
1340492579,5810,106.9700012207031200,23.5347003936767580,35.2545013427734400,240.8639984130859400,54.1932983398437500,23.4931793212890620,28.2548007965087900,84,126,92,85,60,15231,2167718189,2174561170,2177780489,2148352960,2156908187,2160487606,2161357869,2148428809,1436,2,16,37758
1340492801,5808,102.6800003051757800,23.5865001678466800,35.2388000488281250,242.0057067871093800,51.2644081115722660,23.5837993621826170,28.1671600341796880,82,126,94,84,60,15231,2171714249,2179318692,2182312658,2148524626,2159099181,2163160210,2163662290,2148650688,3497,2,16,3920
1340492892,5808,98.9899978637695300,23.7371997833251950,35.2224998474121100,242.9452056884765600,47.1943893432617200,23.7097892761230470,28.0750694274902340,80,125,94,85,56,15223,2176636644,2184892077,2187327341,2148686418,2162055094,2166731547,2166603154,2148921563,346,2,16,7817
1340492947,5811,97.1100006103515600,23.7961006164550780,35.2206993103027340,243.1876983642578000,44.8124084472656250,23.7835597991943360,28.0347003936767580,77,127,93,84,61,15221,2179426642,2187909174,2190041225,2148808960,2163801773,2168774829,2168194816,2149071597,859,2,16,21835
1340493014,5806,95.1299972534179700,23.8736000061035160,35.2215995788574200,243.6949005126953000,42.3342399597168000,23.8603401184082030,27.9816207885742200,76,124,93,85,62,15214,2179093430,2186632000,2187806665,2148789796,2164156982,2168731227,2167667629,2149025682,746,2,16,18875
1340493104,5807,92.0400009155273400,23.9199008941650400,35.2229003906250000,244.5933074951172000,39.9247207641601560,23.9350204467773440,27.9123096466064450,74,125,90,85,57,15210,2180526646,2187132800,2187027117,2148842477,2165981796,2170399058,2168390811,2149083492,384,1,16,2050
1340493159,5809,89.4800033569336000,24.1772003173828120,35.2542991638183600,245.2144012451172000,33.1248703002929700,24.1459293365478500,27.8011894226074220,73,128,94,85,58,15202,2194830875,2204811776,2205127926,2149519552,2173880932,2180040996,2176492278,2149881243,3343,2,16,62350
1340493214,5811,87.1999969482421900,24.3866004943847660,35.2815017700195300,245.6381072998047000,26.2636508941650400,24.3589801788330080,27.6981906890869140,71,126,93,84,59,15202,2176622802,2180670857,2179043364,2148736027,2165069394,2167910372,2165054930,2148791990,415,1,16,7503
1340493269,5809,85.1200027465820300,24.4792995452880860,35.2808990478515600,246.3305969238281200,23.3965091705322270,24.4480800628662100,27.6328506469726560,69,127,96,85,58,15201,2194944969,2202693613,2200917878,2149546322,2176863862,2182162285,2176907510,2149906916,1019,1,16,10227
1340493324,5806,83.1200027465820300,24.5846996307373050,35.2512016296386700,245.8244018554687500,18.2191009521484380,24.6090793609619140,27.5913200378417970,71,128,93,85,57,15197,2208272658,2218782372,2217176347,2150295314,2186373622,2193456621,2186114185,2150781184,1254,1,17,56372
1340493379,5808,81.3600006103515600,24.8717994689941400,35.2937011718750000,245.2545928955078000,10.8587598800659180,24.8382205963134770,27.5256805419921880,69,126,94,86,58,15193,2211636873,2222520530,2220678244,2150590034,2189281115,2196355766,2188031963,2150994413,1672,1,16,18110
1340493458,5808,78.7799987792968800,24.9202003479003900,35.3036994934082000,245.4891052246093800,8.4402942657470700,24.9135799407959000,27.4859905242919920,67,125,94,87,57,15195,2219136137,2230258029,2227436544,2151121280,2196509924,2203890733,2193341056,2151496649,1105,1,16,36252
1340493513,5808,76.1200027465820300,24.9967994689941400,35.3027992248535160,245.0388946533203000,5.8145098686218260,24.9954395294189450,27.4734001159667970,64,123,96,86,57,15190,2173725403,2174589430,2171249581,2148759670,2166103680,2166604882,2161997769,2148546230,455,2,17,40988
1340493568,5808,73.4499969482421900,25.0426998138427730,35.2985992431640600,244.8675994873047000,4.7567820549011230,25.0284194946289060,27.4679107666015620,61,124,93,87,58,15205,2173010340,2172816850,2168743698,2148634560,2166426294,2166408054,2161401618,2148476964,81,2,16,55309
1340493623,5803,71.0299987792968800,25.1509990692138670,35.2877998352050800,244.1443023681640600,1.0839879512786865,25.1430091857910160,27.4543209075927730,63,125,94,86,61,15207,2244824301,2256041947,2250026569,2153333741,2218052644,2226555392,2209293403,2153158921,368,1,16,19417
1340493678,5808,69.0400009155273400,25.2091007232666000,35.2826995849609400,243.4521942138672000,-0.9427607059478760,25.2062702178955080,27.4598598480224600,61,122,93,84,62,15206,2251441115,2263215798,2257287963,2154340681,2219860169,2227951387,2210086875,2153392228,3397,1,17,54861
1340493747,5805,66.8700027465820300,25.2553997039794920,35.2797012329101560,242.6914978027343800,-2.4851469993591310,25.2544307708740230,27.4741992950439450,60,123,93,85,57,15205,2265516361,2276373357,2268074294,2155407040,2230535259,2239453101,2218155117,2154296877,3176,2,16,33122
1340493802,5804,65.1299972534179700,25.3525009155273440,35.2705001831054700,242.3437042236328000,-5.4477720260620120,25.3469791412353500,27.4532604217529300,60,123,95,84,58,15208,2270009782,2279257645,2269562669,2156034569,2235921024,2244846573,2221660306,2154678811,2883,1,17,57223
1340493869,5807,63.1699981689453100,25.4678001403808600,35.2494010925293000,241.9147949218750000,-9.0609655380249020,25.4599208831787100,27.4277801513671880,59,144,93,84,58,15200,2285874285,2295682203,2284764598,2157673673,2247588553,2256966582,2230234276,2155732699,2486,1,16,51550
1340493948,5805,61.1699981689453100,25.5655994415283200,35.2022018432617200,241.2290954589843800,-12.2975902557373050,25.5611591339111330,27.4184799194335940,58,126,96,85,57,15195,2298790372,2308420342,2296694765,2159437101,2257523812,2267005933,2237177270,2156569554,1700,1,17,58772
1340494039,5806,59.6699981689453100,25.6222000122070300,35.1646995544433600,240.5135040283203000,-14.4685201644897460,25.6291103363037100,27.4234199523925780,58,127,93,85,55,15195,2275836516,2282868589,2272338413,2157654345,2241918765,2249117394,2223397778,2155240283,1450,1,17,32197
1340494118,5810,58.1899986267089840,25.6655006408691400,35.1287994384765600,239.7285003662109400,-15.8226604461669920,25.6714992523193360,27.4415702819824220,59,123,95,86,60,15195,2338846272,2352279826,2339763492,2164617691,2289629266,2301592000,2263062555,2159706532,1356,1,17,56788
1340494185,5809,56.2700004577636700,25.6884994506835940,35.1152000427246100,239.2644042968750000,-16.4814891815185550,25.6921291351318360,27.4542198181152340,56,122,90,84,59,15196,2233721892,2234590427,2224873819,2154040384,2214816274,2216235574,2196739300,2152432768,1181,1,17,58734
1340494276,5807,54.3899993896484400,25.7008991241455080,35.0993003845214840,238.7915954589843800,-17.1269493103027340,25.7123508453369140,27.4671592712402340,56,123,93,84,55,15190,2291464585,2297745691,2286267136,2161290806,2262072448,2267392201,2235148836,2156964333,982,2,17,40704
1340494425,5810,52.0200004577636700,25.7549991607666000,35.0241012573242200,238.2702026367187500,-18.7015991210937500,25.7616691589355470,27.4710807800292970,57,121,93,85,63,15188,2365787282,2378735734,2364810742,2171470372,2326371419,2333036480,2282158601,2162523465,482,1,16,59202
1340494504,5808,50.3800010681152340,25.7665996551513670,35.0014991760253900,237.4700012207031200,-19.4744091033935550,25.7858905792236330,27.4972496032714840,56,120,93,83,60,15185,2323576914,2332207378,2319791616,2167753673,2296327936,2297280960,2253664475,2159613147,201,2,16,42931
1340494619,5808,48.6100006103515600,25.7180004119873050,34.9522018432617200,237.1280059814453000,-17.5675506591796880,25.7261505126953120,27.5361003875732420,54,117,92,84,56,15199,2237524662,2237394642,2227515446,2156310025,2234787547,2230350226,2203082578,2153397430,1185,2,16,22733
1340494733,5807,45.7400016784668000,25.6905002593994140,34.9187011718750000,236.8385925292968800,-16.5026397705078120,25.6927890777587900,27.5619792938232420,53,116,89,85,55,15202,2237402788,2236608201,2226545910,2157168438,2241342144,2233822564,2203767542,2153620662,1039,2,17,36237
1340494788,5809,43.2099990844726560,25.6875991821289060,34.9015007019043000,236.7350006103515600,-16.4271106719970700,25.6904296875000000,27.5676193237304700,54,114,91,84,54,15209,2369423771,2380520265,2368278546,2182625810,2381765997,2371932032,2299432868,2166179410,140,1,16,27150
1340494843,5807,40.6199989318847660,25.6837997436523440,34.8928985595703100,236.9335937500000000,-16.6761207580566400,25.6982307434082030,27.5556602478027340,54,114,91,85,53,15213,2427144018,2444549677,2432721865,2198850816,2458049179,2445794578,2350157632,2173400018,3186,1,17,48305
1340494898,5808,37.9700012207031250,25.6868000030517580,34.8939018249511700,236.9595947265625000,-16.6536998748779300,25.6975307464599600,27.5548305511474600,51,116,91,83,59,15220,2350674194,2359340818,2348445750,2186652818,2386641462,2371316763,2295588297,2166601316,3138,1,17,41621
1340494953,5810,35.2599983215332000,25.6872005462646500,34.8951988220214840,236.7263946533203000,-16.5190601348876950,25.6933097839355470,27.5669593811035160,51,114,91,84,57,15217,2267370532,2268202057,2258723126,2169180598,2294440192,2278980571,2231281883,2158272502,3140,2,17,4651
1340495008,5807,32.6599998474121100,25.6931991577148440,34.8945999145507800,236.9349975585937500,-16.6242008209228500,25.6965999603271500,27.5562400817871100,51,115,92,84,54,15220,2271291785,2271885147,2262551414,2172970971,2304507712,2286748608,2235662528,2159419318,3140,0,17,51225